GW6244 Weather Reports


time (UTC)temp
C
wind
direction
speed
KPH
gust
KPH
rain 1hr
cm
rain 24hr
cm
rain mn
cm
humidity
%
barometer
mb
20260906112902 25 136 0.0 0.0 0.00 0.00 0.00 93 1011.5
20260906111402 25 122 0.0 0.0 0.00 0.00 0.00 93 1011.2
20260906105904 25 109 0.0 0.0 0.00 0.00 0.00 93 1011.2
20260906104902 25 59 0.0 0.0 0.00 0.00 0.00 93 1011.2
20260906103402 25 137 0.0 0.0 0.00 0.00 0.00 93 1011.2
20260906101902 25 93 0.0 0.0 0.00 0.00 0.00 93 1011.2
20260906094903 25 83 0.0 0.0 0.00 0.00 0.00 93 1010.8
20260906093403 25 99 0.0 0.0 0.00 0.00 0.00 93 1010.8
20260906091902 25 131 0.0 0.0 0.00 0.00 0.00 93 1010.8
20260906090503 25 103 0.0 0.0 0.00 0.00 0.00 93 1010.8
20260906083403 25 121 0.0 0.0 0.00 0.00 0.00 93 1011.2
20260906081902 26 113 0.0 0.0 0.00 0.00 0.00 93 1011.2
20260906080403 26 124 0.0 0.0 0.00 0.00 0.00 93 1011.2
20260906074902 25 140 0.0 0.0 0.00 0.00 0.00 93 1010.8
20260906073402 26 338 0.0 0.0 0.00 0.00 0.00 93 1011.2
20260906070403 26 127 0.0 0.0 0.00 0.00 0.00 93 1011.2
20260906063403 26 98 0.0 0.0 0.00 0.00 0.00 92 1011.2
20260906061903 26 132 0.0 0.0 0.00 0.00 0.00 92 1011.2
20260906060403 26 128 0.0 0.0 0.00 0.00 0.00 92 1011.2
20260906054903 26 104 0.0 0.0 0.00 0.00 0.00 92 1011.5
20260906053404 26 111 0.0 0.0 0.00 0.00 0.00 92 1011.9
20260906051903 26 73 0.0 0.0 0.00 0.00 0.00 91 1011.9
20260906050403 26 118 0.0 0.0 0.00 0.00 0.00 91 1011.9
20260906044903 26 71 0.0 0.0 0.00 0.00 0.00 91 1011.9
20260906041902 26 89 0.0 0.0 0.00 0.00 0.00 90 1011.9
20260906040403 26 93 0.0 0.0 0.00 0.00 0.00 90 1011.9
20260906035902 27 127 0.0 0.0 0.00 0.00 0.00 90 1011.9
20260906034404 27 313 0.0 0.0 0.00 0.00 0.00 89 1012.2
20260906032902 27 90 4.8 6.4 0.00 0.00 0.00 89 1012.2
20260906031402 27 93 0.0 4.8 0.00 0.00 0.00 89 1012.5
20260906025902 27 121 0.0 0.0 0.00 0.00 0.00 88 1012.2
20260906024402 27 103 0.0 6.4 0.00 0.00 0.00 88 1012.2
20260906021402 27 92 0.0 4.8 0.00 0.00 0.00 86 1011.9
20260906014901 27 321 0.0 4.8 0.00 0.00 0.00 84 1011.9
20260906013403 27 76 0.0 1.6 0.00 0.00 0.00 83 1011.9
20260906011902 27 315 0.0 0.0 0.00 0.00 0.00 82 1011.5
20260906010403 28 50 0.0 0.0 0.00 0.00 0.00 81 1011.5
20260905205403 34 58 8.0 9.7 0.00 0.00 0.00 58 1011.2
20260905203903 34 147 4.8 14.5 0.00 0.00 0.00 57 1010.8
20260905200902 34 209 4.8 8.0 0.00 0.00 0.00 58 1011.2
20260905195402 33 114 4.8 9.7 0.00 0.00 0.00 60 1011.2
20260905193902 33 98 11.3 12.9 0.00 0.00 0.00 59 1011.5
20260905190902 33 29 4.8 9.7 0.00 0.00 0.00 60 1012.2
20260905185901 33 45 4.8 8.0 0.00 0.00 0.00 61 1012.2
20260905184403 33 89 9.7 9.7 0.00 0.00 0.00 60 1012.5
20260905182902 33 31 11.3 11.3 0.00 0.00 0.00 60 1012.9
20260905181403 33 105 0.0 11.3 0.00 0.00 0.00 62 1012.9
20260905175903 33 220 4.8 8.0 0.00 0.00 0.00 60 1013.2
20260905174403 32 63 3.2 9.7 0.00 0.00 0.00 65 1013.5
20260905171402 31 47 4.8 9.7 0.00 0.00 0.00 70 1013.9
20260905165902 32 2 0.0 9.7 0.00 0.00 0.00 68 1013.9
20260905164402 31 70 9.7 11.3 0.00 0.00 0.00 71 1014.2
20260905162903 32 300 0.0 8.0 0.00 0.00 0.00 67 1014.2
20260905161402 30 90 0.0 9.7 0.00 0.00 0.00 71 1014.6
20260905155903 30 109 1.6 9.7 0.00 0.00 0.00 74 1014.6
20260905154403 30 222 1.6 3.2 0.00 0.00 0.00 74 1014.9
20260905152902 30 191 1.6 4.8 0.00 0.00 0.00 73 1014.9
20260905145905 28 63 6.4 11.3 0.00 0.00 0.00 80 1015.2
20260905144402 27 167 0.0 9.7 0.00 0.00 0.00 81 1015.2
20260905142902 27 49 4.8 6.4 0.00 0.00 0.00 83 1015.2
20260905141404 27 86 6.4 11.3 0.00 0.00 0.00 84 1015.2
20260905140402 27 119 0.0 4.8 0.00 0.00 0.00 86 1015.2
20260905133402 25 82 3.2 4.8 0.00 0.00 0.00 92 1015.2
20260905131902 25 141 0.0 6.4 0.00 0.00 0.00 93 1015.2
20260905130403 25 107 3.2 4.8 0.00 0.00 0.00 94 1015.2